GW3580 Weather Reports


time (UTC)temp
F
wind
direction
speed
knots
gust
knots
rain 1hr
in
rain 24hr
in
rain mn
in
humidity
%
barometer
mb
20260506171327 64 274 1.7 1.7 0.00 0.00 0.00 67 1019.2
20260506170825 64 257 2.6 3.5 0.00 0.00 0.00 67 1019.2
20260506170320 63 321 1.7 1.7 0.00 0.00 0.00 67 1019.3
20260506165820 63 271 1.7 3.5 0.00 0.00 0.00 68 1019.3
20260506165317 63 26 0.0 0.9 0.00 0.00 0.00 68 1019.2
20260506164813 63 343 0.0 0.0 0.00 0.00 0.00 68 1019.2
20260506164310 63 266 0.9 0.9 0.00 0.00 0.00 68 1019.4
20260506163807 62 279 0.9 1.7 0.00 0.00 0.00 70 1019.4
20260506163302 62 0 0.0 0.0 0.00 0.00 0.00 71 1019.4
20260506162758 61 244 0.9 0.9 0.00 0.00 0.00 72 1019.3
20260506162256 62 258 0.9 0.9 0.00 0.00 0.00 71 1019.4
20260506161753 60 284 1.7 1.7 0.00 0.00 0.00 73 1019.5
20260506161250 61 342 0.9 0.9 0.00 0.00 0.00 73 1019.5
20260506160748 60 43 0.0 0.9 0.00 0.00 0.00 75 1019.5
20260506160244 59 234 0.9 0.9 0.00 0.00 0.00 75 1019.6
20260506155743 59 291 1.7 1.7 0.00 0.00 0.00 76 1019.6
20260506155239 59 134 0.9 0.9 0.00 0.00 0.00 76 1019.4
20260506153347 57 259 2.6 3.5 0.00 0.00 0.00 79 1019.7
20260506152843 57 280 1.7 1.7 0.00 0.00 0.00 79 1019.6
20260506152341 57 255 1.7 1.7 0.00 0.00 0.00 79 1019.4
20260506151839 57 269 2.6 4.3 0.00 0.00 0.00 79 1019.6
20260506151335 56 358 0.0 0.0 0.00 0.00 0.00 81 1019.5
20260506150833 56 35 0.0 0.0 0.00 0.00 0.00 81 1019.4
20260506150329 55 290 0.9 0.9 0.00 0.00 0.00 81 1019.5
20260506145826 55 269 0.9 0.9 0.00 0.00 0.00 82 1019.7
20260506145322 54 267 2.6 3.5 0.00 0.00 0.00 83 1019.5
20260506144820 54 256 1.7 1.7 0.00 0.00 0.00 83 1019.5
20260506144317 54 350 0.0 0.0 0.00 0.00 0.00 84 1019.6
20260506143815 54 273 1.7 1.7 0.00 0.00 0.00 85 1019.4
20260506143312 53 278 0.0 0.0 0.00 0.00 0.00 86 1019.4
20260506142810 53 236 0.9 1.7 0.00 0.00 0.00 86 1019.4
20260506142308 53 273 0.0 0.9 0.00 0.00 0.00 86 1019.2
20260506141806 53 328 0.0 0.0 0.00 0.00 0.00 87 1019.2
20260506141303 52 18 0.0 0.0 0.00 0.00 0.00 88 1019.2
20260506140801 52 17 0.0 0.0 0.00 0.00 0.00 88 1019.3
20260506140258 52 20 0.0 0.0 0.00 0.00 0.00 88 1019.1
20260506135755 52 356 0.0 0.0 0.00 0.00 0.00 88 1019.0
20260506135251 51 292 0.0 0.0 0.00 0.00 0.00 88 1018.9
20260506134748 51 286 0.9 0.9 0.00 0.00 0.00 88 1019.1
20260506134244 51 8 0.0 0.0 0.00 0.00 0.00 88 1018.9
20260506133741 51 2 0.0 0.0 0.00 0.00 0.00 88 1018.9
20260506133238 51 313 0.0 0.0 0.00 0.00 0.00 88 1018.6
20260506132735 51 274 0.0 0.0 0.00 0.00 0.00 88 1018.9
20260506132232 50 284 0.0 0.0 0.00 0.00 0.00 88 1018.7
20260506131730 51 284 0.0 0.0 0.00 0.00 0.00 88 1018.8
20260506131226 51 284 0.0 0.0 0.00 0.00 0.00 88 1018.5
20260506130723 51 284 0.0 0.0 0.00 0.00 0.00 88 1018.5
20260506130220 51 281 0.0 0.0 0.00 0.00 0.00 88 1018.5
20260506125718 51 275 0.9 0.9 0.00 0.00 0.00 88 1018.3
20260506125215 51 293 0.0 0.0 0.00 0.00 0.00 88 1018.2
20260506124713 51 281 0.9 0.9 0.00 0.00 0.00 88 1018.3
20260506124211 51 295 0.9 0.9 0.00 0.00 0.00 88 1018.3
20260506123708 51 26 0.0 0.0 0.00 0.00 0.00 88 1018.3
20260506123207 51 26 0.0 0.0 0.00 0.00 0.00 88 1018.2
20260506122703 51 26 0.0 0.0 0.00 0.00 0.00 88 1018.2
20260506122201 51 26 0.0 0.0 0.00 0.00 0.00 88 1018.2
20260506121658 51 26 0.0 0.0 0.00 0.00 0.00 88 1018.2
20260506121154 51 26 0.0 0.0 0.00 0.00 0.00 88 1018.1
20260506120653 50 26 0.0 0.0 0.00 0.00 0.00 88 1018.0
20260506120150 51 26 0.0 0.0 0.00 0.00 0.00 88 1018.1
20260506115648 51 26 0.0 0.0 0.00 0.00 0.00 87 1018.2
20260506115146 51 26 0.0 0.0 0.00 0.00 0.00 87 1018.1
20260506114643 51 26 0.0 0.0 0.00 0.00 0.00 87 1018.1
20260506114141 51 26 0.0 0.0 0.00 0.00 0.00 87 1018.1
20260506113639 51 25 0.0 0.0 0.00 0.00 0.00 87 1018.0
20260506113136 51 25 0.0 0.0 0.00 0.00 0.00 87 1018.0
20260506112632 51 26 0.0 0.0 0.00 0.00 0.00 87 1017.9
20260506112130 51 26 0.0 0.0 0.00 0.00 0.00 87 1017.7
20260506111627 51 25 0.0 0.0 0.00 0.00 0.00 87 1017.7
20260506111125 51 25 0.0 0.0 0.00 0.00 0.00 87 1017.8
20260506110622 52 25 0.0 0.0 0.00 0.00 0.00 87 1017.8
20260506110119 52 27 0.0 0.0 0.00 0.00 0.00 87 1017.9
20260506105616 52 12 0.0 0.0 0.00 0.00 0.00 87 1017.9
20260506105113 52 4 0.0 0.0 0.00 0.00 0.00 86 1017.6
20260506104611 52 4 0.0 0.0 0.00 0.00 0.00 86 1017.6
20260506104108 52 4 0.0 0.0 0.00 0.00 0.00 86 1017.6
20260506103605 52 3 0.0 0.0 0.00 0.00 0.00 86 1017.7
20260506103102 52 3 0.0 0.0 0.00 0.00 0.00 86 1017.7
20260506102600 52 3 0.0 0.0 0.00 0.00 0.00 86 1017.7
20260506102057 53 3 0.0 0.0 0.00 0.00 0.00 86 1017.9
20260506101554 53 3 0.0 0.0 0.00 0.00 0.00 85 1017.6
20260506101051 53 3 0.0 0.0 0.00 0.00 0.00 85 1017.5
20260506100549 53 11 0.0 0.0 0.00 0.00 0.00 85 1017.6
20260506100047 53 11 0.0 0.0 0.00 0.00 0.00 85 1017.5
20260506095546 53 10 0.0 0.0 0.00 0.00 0.00 85 1017.5
20260506095042 53 10 0.0 0.0 0.00 0.00 0.00 84 1017.5
20260506094539 54 7 0.0 0.0 0.00 0.00 0.00 84 1017.4
20260506094037 54 336 0.0 0.0 0.00 0.00 0.00 84 1017.3
20260506093535 54 266 0.0 0.0 0.00 0.00 0.00 84 1017.3
20260506093032 54 266 0.0 0.0 0.00 0.00 0.00 84 1017.4
20260506092530 54 251 0.0 0.0 0.00 0.00 0.00 84 1017.4
20260506092027 54 259 0.0 0.0 0.00 0.00 0.00 84 1017.2
20260506091525 54 269 0.0 0.9 0.00 0.00 0.00 84 1017.2
20260506091022 54 244 0.9 0.9 0.00 0.00 0.00 85 1017.1
20260506090520 54 252 0.0 0.0 0.00 0.00 0.00 85 1017.2
20260506090016 53 310 0.0 0.0 0.00 0.00 0.00 84 1017.5
20260506085513 54 309 0.0 0.0 0.00 0.00 0.00 84 1017.5
20260506085009 54 16 0.0 0.0 0.00 0.00 0.00 84 1017.6
20260506084506 53 7 0.0 0.0 0.00 0.00 0.00 83 1017.7
20260506084002 53 7 0.0 0.0 0.00 0.00 0.00 83 1017.6
20260506083500 54 7 0.0 0.0 0.00 0.00 0.00 83 1017.5
20260506082957 54 7 0.0 0.0 0.00 0.00 0.00 82 1017.5
20260506082454 54 20 0.0 0.0 0.00 0.00 0.00 82 1017.5
20260506081949 54 21 0.0 0.0 0.00 0.00 0.00 82 1017.3
20260506081448 54 20 0.0 0.0 0.00 0.00 0.00 82 1017.6
20260506080945 54 20 0.0 0.0 0.00 0.00 0.00 81 1017.4
20260506080442 55 20 0.0 0.0 0.00 0.00 0.00 81 1017.6
20260506073426 55 276 0.0 0.0 0.00 0.00 0.00 80 1017.2
20260506072923 56 275 0.0 0.0 0.00 0.00 0.00 80 1017.1
20260506072420 56 338 0.9 0.9 0.00 0.00 0.00 80 1017.2
20260506071918 55 34 0.0 0.0 0.00 0.00 0.00 80 1016.9
20260506071416 55 27 0.0 0.0 0.00 0.00 0.00 79 1017.1
20260506070912 55 29 0.0 0.0 0.00 0.00 0.00 79 1017.1
20260506070409 56 29 0.0 0.0 0.00 0.00 0.00 79 1017.0
20260506062347 57 28 0.0 0.0 0.00 0.00 0.00 78 1016.4
20260506061842 57 28 0.0 0.0 0.00 0.00 0.00 78 1016.5
20260506061339 57 28 0.0 0.0 0.00 0.00 0.00 78 1016.7
20260506060837 57 119 0.0 0.0 0.00 0.00 0.00 78 1016.3
20260506060335 57 119 0.0 0.0 0.00 0.00 0.00 77 1016.3
20260506051307 59 309 0.0 0.0 0.00 0.00 0.00 74 1016.0
20260506050805 59 351 0.0 0.0 0.00 0.00 0.00 73 1015.9
20260506050302 59 254 0.0 0.0 0.00 0.00 0.00 73 1016.1
20260506044752 59 8 0.0 0.0 0.00 0.00 0.00 72 1015.9
20260506044250 59 30 0.0 0.0 0.00 0.00 0.00 72 1015.8
20260506043747 59 295 0.0 0.0 0.00 0.00 0.00 72 1015.7
20260506043244 60 274 0.9 0.9 0.00 0.00 0.00 71 1015.7
20260506042743 60 287 0.9 0.9 0.00 0.00 0.00 72 1015.5
20260506042241 59 58 0.0 0.0 0.00 0.00 0.00 73 1015.7
20260506041739 59 59 0.0 0.0 0.00 0.00 0.00 72 1015.7
20260506041236 59 59 0.0 0.0 0.00 0.00 0.00 71 1015.2
20260506040733 59 59 0.0 0.0 0.00 0.00 0.00 71 1015.3
20260506040230 60 59 0.0 0.0 0.00 0.00 0.00 70 1015.1
20260506035727 60 59 0.0 0.0 0.00 0.00 0.00 69 1015.2
20260506035224 60 59 0.0 0.0 0.00 0.00 0.00 68 1015.2
20260506034721 60 59 0.0 0.0 0.00 0.00 0.00 68 1015.0
20260506034218 60 59 0.0 0.0 0.00 0.00 0.00 67 1014.9
20260506033715 60 59 0.0 0.0 0.00 0.00 0.00 66 1014.7
20260506033212 60 60 0.0 0.0 0.00 0.00 0.00 65 1014.8
20260506032709 61 60 0.0 0.0 0.00 0.00 0.00 65 1014.8
20260506032206 61 60 0.0 0.0 0.00 0.00 0.00 64 1014.6
20260506031703 61 60 0.0 0.0 0.00 0.00 0.00 63 1014.5
20260506031200 62 57 0.0 0.9 0.00 0.00 0.00 62 1014.4
20260506030658 62 63 0.9 0.9 0.00 0.00 0.00 62 1014.3
20260506030155 62 53 0.0 0.0 0.00 0.00 0.00 61 1014.5
20260506025646 63 86 0.9 0.9 0.00 0.00 0.00 60 1014.3
20260506025142 63 23 0.0 0.0 0.00 0.00 0.00 59 1014.4
20260506024640 64 38 0.9 0.9 0.00 0.00 0.00 59 1014.2
20260506024136 64 358 0.0 0.0 0.00 0.00 0.00 59 1014.3
20260506023633 64 54 1.7 1.7 0.00 0.00 0.00 59 1014.0
20260506023130 64 17 0.0 0.0 0.00 0.00 0.00 58 1014.1
20260506022627 64 329 0.0 0.0 0.00 0.00 0.00 57 1014.1
20260506022125 65 329 0.9 0.9 0.00 0.00 0.00 55 1013.9
20260506021622 65 28 0.9 0.9 0.00 0.00 0.00 54 1013.9
20260506021119 66 43 0.0 0.0 0.00 0.00 0.00 53 1013.9
20260506020616 66 43 0.0 0.0 0.00 0.00 0.00 52 1013.9
20260506020114 66 52 0.0 0.9 0.00 0.00 0.00 51 1013.9
20260506015611 67 58 0.9 0.9 0.00 0.00 0.00 50 1013.8
20260506015108 68 342 0.9 0.9 0.00 0.00 0.00 50 1013.6
20260506014606 67 11 0.0 0.0 0.00 0.00 0.00 49 1013.9
20260506014101 67 327 0.9 0.9 0.00 0.00 0.00 50 1013.8
20260506013559 67 9 0.9 0.9 0.00 0.00 0.00 50 1013.7
20260506013056 67 75 0.9 1.7 0.00 0.00 0.00 50 1013.7
20260506012552 67 150 0.9 0.9 0.00 0.00 0.00 49 1013.6
20260506012049 67 18 3.5 4.3 0.00 0.00 0.00 49 1013.9
20260506011547 67 62 1.7 1.7 0.00 0.00 0.00 49 1013.8
20260506011043 67 248 0.9 0.9 0.00 0.00 0.00 48 1013.9
20260506010542 67 300 0.9 0.9 0.00 0.00 0.00 49 1013.8
20260506010038 67 281 0.9 0.9 0.00 0.00 0.00 48 1013.7
20260506005535 67 34 0.9 0.9 0.00 0.00 0.00 49 1013.9
20260506005031 67 66 0.9 1.7 0.00 0.00 0.00 48 1013.9
20260506004529 67 53 0.9 0.9 0.00 0.00 0.00 49 1013.9
20260506004025 68 234 0.9 1.7 0.00 0.00 0.00 49 1013.8
20260506003522 68 270 0.9 0.9 0.00 0.00 0.00 49 1013.6
20260506003018 67 24 0.0 0.0 0.00 0.00 0.00 48 1013.7
20260506002514 68 229 2.6 3.5 0.00 0.00 0.00 47 1013.8
20260506002010 69 288 0.9 0.9 0.00 0.00 0.00 45 1014.0
20260506001506 69 307 2.6 3.5 0.00 0.00 0.00 45 1013.6
20260506001004 69 45 0.9 0.9 0.00 0.00 0.00 46 1013.6
20260506000501 69 232 0.0 0.0 0.00 0.00 0.00 46 1013.7
20260505235958 70 257 3.5 4.3 0.00 0.00 0.00 45 1013.9
20260505235456 69 248 0.9 0.9 0.00 0.00 0.00 45 1013.8
20260505234953 69 35 0.0 0.0 0.00 0.00 0.00 45 1013.9
20260505234450 71 281 0.9 1.7 0.00 0.00 0.00 46 1013.7
20260505233947 69 24 0.9 0.9 0.00 0.00 0.00 45 1013.8
20260505233444 70 292 6.1 6.1 0.00 0.00 0.00 44 1013.9
20260505232942 69 143 0.0 0.9 0.00 0.00 0.00 47 1013.9
20260505232440 69 271 2.6 4.3 0.00 0.00 0.00 48 1013.8
20260505231936 69 290 5.2 6.1 0.00 0.00 0.00 46 1013.9
20260505231433 69 259 2.6 4.3 0.00 0.00 0.00 45 1013.9
20260505230932 70 31 1.7 3.5 0.00 0.00 0.00 44 1013.7
20260505230429 70 263 1.7 3.5 0.00 0.00 0.00 42 1014.0
20260505225925 68 280 3.5 4.3 0.00 0.00 0.00 47 1014.0
20260505225423 67 29 1.7 1.7 0.00 0.00 0.00 48 1014.0
20260505224918 68 255 4.3 5.2 0.00 0.00 0.00 47 1013.8
20260505224416 69 303 1.7 1.7 0.00 0.00 0.00 45 1013.9
20260505223912 69 271 4.3 5.2 0.00 0.00 0.00 44 1013.8
20260505223409 70 261 4.3 6.1 0.00 0.00 0.00 45 1014.1
20260505222905 70 261 2.6 3.5 0.00 0.00 0.00 45 1014.1
20260505222402 69 276 1.7 3.5 0.00 0.00 0.00 46 1014.0
20260505221858 68 257 4.3 5.2 0.00 0.00 0.00 45 1014.1
20260505221355 68 219 4.3 5.2 0.00 0.00 0.00 45 1014.1
20260505220853 70 276 0.9 0.9 0.00 0.00 0.00 45 1013.9
20260505220349 68 294 4.3 5.2 0.00 0.00 0.00 45 1013.9
20260505215847 69 261 2.6 3.5 0.00 0.00 0.00 45 1014.0
20260505215345 71 280 4.3 5.2 0.00 0.00 0.00 44 1014.3
20260505214843 70 5 1.7 1.7 0.00 0.00 0.00 42 1014.1
20260505214340 69 298 1.7 1.7 0.00 0.00 0.00 43 1014.2
20260505213837 69 240 1.7 3.5 0.00 0.00 0.00 45 1014.1
20260505213335 69 253 4.3 5.2 0.00 0.00 0.00 44 1014.4
20260505212831 68 248 4.3 5.2 0.00 0.00 0.00 45 1014.2
20260505212328 68 273 3.5 5.2 0.00 0.00 0.00 43 1014.2
20260505211824 67 265 3.5 4.3 0.00 0.00 0.00 45 1014.1
20260505211322 68 280 5.2 7.0 0.00 0.00 0.00 44 1014.3
20260505210818 69 273 5.2 6.1 0.00 0.00 0.00 41 1014.1
20260505210315 68 289 4.3 5.2 0.00 0.00 0.00 42 1014.1
20260505205812 69 125 0.9 0.9 0.00 0.00 0.00 42 1014.4
20260505205310 68 265 6.1 6.1 0.00 0.00 0.00 43 1014.4
20260505204807 68 279 2.6 3.5 0.00 0.00 0.00 44 1014.4
20260505204305 68 245 2.6 4.3 0.00 0.00 0.00 43 1014.2
20260505203802 67 266 3.5 4.3 0.00 0.00 0.00 43 1014.4
20260505203258 66 279 3.5 4.3 0.00 0.00 0.00 43 1014.4
20260505202754 66 236 2.6 3.5 0.00 0.00 0.00 44 1014.4
20260505202251 67 278 5.2 6.1 0.00 0.00 0.00 44 1014.3
20260505201747 68 249 5.2 6.1 0.00 0.00 0.00 43 1014.4
20260505201245 68 226 1.7 3.5 0.00 0.00 0.00 44 1014.4
20260505200743 68 225 2.6 3.5 0.00 0.00 0.00 45 1014.3
20260505200240 67 253 1.7 3.5 0.00 0.00 0.00 48 1014.4
20260505195729 68 257 0.9 3.5 0.00 0.00 0.00 48 1014.5
20260505195227 65 321 1.7 1.7 0.00 0.00 0.00 50 1014.2
20260505194724 65 282 5.2 7.0 0.00 0.00 0.00 49 1014.5
20260505194221 67 283 2.6 4.3 0.00 0.00 0.00 48 1014.8
20260505193717 65 227 2.6 3.5 0.00 0.00 0.00 48 1014.6
20260505193214 65 305 5.2 6.1 0.00 0.00 0.00 50 1014.4
20260505192713 65 279 1.7 3.5 0.00 0.00 0.00 52 1014.6
20260505192209 64 251 3.5 4.3 0.00 0.00 0.00 52 1014.5
20260505191707 64 239 1.7 3.5 0.00 0.00 0.00 55 1014.5
20260505191205 64 266 3.5 4.3 0.00 0.00 0.00 54 1014.6
20260505190701 63 267 3.5 4.3 0.00 0.00 0.00 57 1014.7
20260505190156 63 251 4.3 5.2 0.00 0.00 0.00 56 1014.8
20260505185653 64 249 3.5 4.3 0.00 0.00 0.00 55 1014.9
20260505185149 63 32 0.9 1.7 0.00 0.00 0.00 58 1014.8
20260505184645 63 274 4.3 5.2 0.00 0.00 0.00 57 1014.8
20260505184143 62 280 4.3 6.1 0.00 0.00 0.00 57 1015.0
20260505183639 62 245 4.3 4.3 0.00 0.00 0.00 57 1014.8
20260505183137 62 250 1.7 1.7 0.00 0.00 0.00 58 1015.0
20260505182633 62 288 3.5 4.3 0.00 0.00 0.00 59 1015.0
20260505182130 63 249 2.6 4.3 0.00 0.00 0.00 58 1015.0
20260505181626 62 311 0.9 1.7 0.00 0.00 0.00 59 1015.0
20260505181124 62 278 4.3 5.2 0.00 0.00 0.00 60 1015.0
20260505180620 61 273 3.5 5.2 0.00 0.00 0.00 61 1014.9
20260505180118 61 33 1.7 3.5 0.00 0.00 0.00 61 1014.9
20260505175613 61 243 3.5 4.3 0.00 0.00 0.00 61 1014.8
20260505175110 61 247 2.6 3.5 0.00 0.00 0.00 61 1014.7
20260505174607 61 256 4.3 5.2 0.00 0.00 0.00 62 1014.6
20260505174103 60 239 1.7 1.7 0.00 0.00 0.00 62 1014.6
20260505173600 60 269 2.6 3.5 0.00 0.00 0.00 62 1014.6
20260505173056 59 329 0.9 1.7 0.00 0.00 0.00 63 1014.3
20260505172554 60 239 2.6 3.5 0.00 0.00 0.00 63 1014.4
20260505172051 61 265 3.5 5.2 0.00 0.00 0.00 63 1014.2
20260505171545 60 246 3.5 4.3 0.00 0.00 0.00 64 1014.3